{"data":{"norad_id":67316,"intl_designator":"2026-002M","name":"STARLINK-36461","alt_names":[],"object_type":"PAYLOAD","status":"ACTIVE","operator":null,"country":"US","launch_date":"2026-01-04","launch_site_code":"AFETR","launch_vehicle":null,"mission":null,"orbit_class":"UNKNOWN","rcs_meters":null,"size_class":null,"mass_kg":null,"dimensions":null,"purposes":["comms"],"wikipedia_slug":null,"has_3d_model":false,"image_url":null,"decayed_at":null,"tle_current":{"epoch":"2026-09-19T10:33:18.461664Z","epoch_age_seconds":167061,"freshness":"FRESH","line1":"1 67316U 26002M   26262.43979701  .00010353  00000+0  38514-3 0  9996","line2":"2 67316  43.0012 310.7928 0001342 266.9364  93.1334 15.27587178 40874","mean_motion":15.27587178,"eccentricity":0.0001342,"inclination_deg":43.0012,"raan_deg":310.7928,"arg_perigee_deg":266.9364,"mean_anomaly_deg":93.1334,"bstar":0.00038514,"rev_number":4087,"period_min":94.266305762354,"perigee_km":482.10683431987,"apogee_km":483.94837089922,"semimajor_km":6861.1646026095,"source":"CELESTRAK","updated_at":"2026-09-20T09:00:43.504995Z"}}}